Satellite-Ground Cal/Val Site Overpasses Predictions

Prediction of Satellite NPP Overpassing Cal/Val Site: Antarctic Dome C

Ground Cal/Val Site Location: Latitude: -75.10, Longitude: 123.35; Satellite-Ground Site NADIR distance within 100 km.

Table of predicted overpasses for the next 14.0 days since TLE Epoch: 7/31/2012
Interval Starting Time Ending Time Minimum Distance Time Minimum Distance (km)
1 07/31/2012 14:59:20 07/31/2012 14:59:45 07/31/2012 14:59:33 56.33
2 08/01/2012 14:40:31 08/01/2012 14:40:56 08/01/2012 14:40:43 52.87
3 08/02/2012 07:42:11 08/02/2012 07:42:31 08/02/2012 07:42:21 71.95
4 08/03/2012 07:23:19 08/03/2012 07:23:46 08/03/2012 07:23:32 36.05
5 08/05/2012 15:05:44 08/05/2012 15:05:54 08/05/2012 15:05:49 94.10
6 08/06/2012 14:46:44 08/06/2012 14:47:13 08/06/2012 14:46:58 17.15
7 08/08/2012 07:29:33 08/08/2012 07:30:02 08/08/2012 07:29:47 1.64
8 08/11/2012 14:52:59 08/11/2012 14:53:28 08/11/2012 14:53:14 19.60
9 08/12/2012 14:34:17 08/12/2012 14:34:30 08/12/2012 14:34:23 87.63
10 08/13/2012 07:35:49 08/13/2012 07:36:16 08/13/2012 07:36
